Regional Weather Roundup
Issued by NWS

Home | Current Version | Previous Version | Graphics & Text | Print | Product List | Glossary On
Versions: 1 2 3 4 5 6 7 8 9 10 11 12 13 14 15 16 17 18 19 20 21 22 23 24 25 26 27 28 29 30 31 32 33 34 35 36 37 38 39 40 41 42 43 44 45 46 47 48 49 50
000
ASUS45 KCYS 030710
RWRWY

WYOMING REGIONAL WEATHER ROUNDUP
NATIONAL WEATHER SERVICE CHEYENNE WY
100 AM MDT THU SEP 03 2015

NOTE:  "FAIR" INDICATES FEW OR NO CLOUDS BELOW 12,000 FEET
WITH NO SIGNIFICANT WEATHER AND/OR OBSTRUCTIONS TO VISIBILITY.

WYZ001-030800-
YELLOWSTONE NATIONAL PARK

CITY           SKY/WX    TMP DP  RH WIND       PRES   REMARKS
LK YELLOWSTONE   N/A     44  35  70 NW3       30.11F
W YELLOWSTONE  NOT AVBL

$$
WYZ002>013-054>058-071-098>099-030800-
NORTHERN WYOMING

CITY           SKY/WX    TMP DP  RH WIND       PRES   REMARKS
JACKSON        FAIR      48  37  66 N7        30.01S
CODY           FAIR      72  36  26 SW13      29.87S
GREYBULL       FAIR      64  34  32 CALM      29.80R
WORLAND        FAIR      68  36  30 SW5       29.82R
SHERIDAN       FAIR      67  38  34 S5        29.78R
BUFFALO        FAIR      80  34  19 W14       29.86F
GILLETTE       FAIR      75  35  23 S18       29.83S
HULETT         FAIR      72  37  28 S8        29.84S
NEWCASTLE      FAIR      73  34  23 SE7       29.88R

$$
WYZ014>020-022>026-101>103-030800-
CENTRAL WYOMING

CITY           SKY/WX    TMP DP  RH WIND       PRES   REMARKS
BIG PINEY      FAIR      52  32  46 CALM      30.09F
PINEDALE       FAIR      46  37  71 NW3       30.11S
DUBOIS         FAIR      52  30  43 NW9       30.08S
LANDER         FAIR      68  38  33 CALM      29.95S
RIVERTON       FAIR      70  37  29 S5        29.96S
CASPER         FAIR      69  39  33 SW10      29.97S
DOUGLAS        FAIR      73  40  30 N6        29.96S

$$
WYZ021-027>030-104>119-030800-
SOUTHERN WYOMING

CITY           SKY/WX    TMP DP  RH WIND       PRES   REMARKS
EVANSTON       FAIR      60  34  37 SW12      30.10S
KEMMERER       FAIR      54  36  50 N5        30.11F
FORT BRIDGER   SUNNY     63  34  34 SW10      30.12S
ROCK SPRINGS   FAIR      65  37  35 S12       30.09F
DIXON          FAIR      59  44  56 CALM      30.15S
RAWLINS        FAIR      64  40  41 SW7       30.12S
SARATOGA       FAIR      59  43  55 S12       30.15F
LARAMIE        FAIR      53  41  63 W7        30.17F
CHEYENNE       FAIR      65  44  46 W10       30.08S
TORRINGTON     FAIR      67  47  48 SE3       29.91S
PINE BLUFFS    FAIR      59  41  51 CALM      30.03S

$$


USA.gov is the U.S. government's official web portal to all federal, state and local government web resources and services.